Probability
0 0 0 0 0 0 1 1 1 1 2 2 3 3 2 1 0 0 0 0 1 2 3 2 1 0 0 0 0 0 0 0 0 0 0 0 0 0 0 0 0 0 0
0 0 0 0 0 0 0 0 0 0 1 1 2 2 1 0 0 0 0 0 1 2 2 1 0 0 0 0 0 0 0 0 0 0 0 0 0 0 0 0 0 0 0
0 0 0 0 0 0 0 0 0 0 0 0 1 1 0 0 0 0 0 0 0 1 1 0 0 0 0 0 0 0 0 0 0 0 0 0 0 0 0 0 0 0 0
0 0 0 0 0 0 0 0 0 0 0 0 0 0 0 0 0 0 0 0 0 0 0 0 0 0 0 0 0 0 0 0 0 0 0 0 0 0 0 0 0 0 0
0 0 0 0 0 0 0 0 0 0 0 0 0 0 0 0 0 0 0 0 0 0 0 0 0 0 0 0 0 0 0 0 0 0 0 0 0 0 0 0 0 0 0
0 0 0 0 0 0 0 0 0 0 0 0 0 0 0 0 0 0 0 0 0 0 0 0 0 0 0 0 0 0 0 0 0 0 0 0 0 0 0 0 0 0 0
0 0 0 0 0 0 0 0 0 0 0 0 0 0 0 0 0 0 0 0 0 0 0 0 0 0 0 0 0 0 0 0 0 0 0 0 0 0 0 0 0 0 0
0 0 0 0 0 0 0 0 0 0 0 0 0 0 0 0 0 0 0 0 0 0 0 0 0 0 0 0 1 2 1 0 0 0 0 0 0 0 0 0 0 0 0
0 0 0 0 0 0 0 0 0 0 0 0 0 0 0 0 0 0 0 0 0 0 0 0 0 0 0 0 1 2 1 0 0 0 0 0 0 0 0 0 0 0 0
0 0 0 0 0 0 0 0 0 0 0 0 0 0 0 0 0 0 0 0 0 0 0 0 0 0 0 0 1 1 1 0 0 0 0 0 0 0 0 0 0 0 0
0 0 0 0 0 0 0 0 0 0 0 0 0 0 0 0 0 0 0 0 0 0 0 0 0 0 0 0 0 0 0 0 0 0 0 0 0 0 0 0 0 0 0
0 0 0 0 0 0 0 0 0 0 0 0 0 0 0 0 0 0 0 0 0 0 0 0 0 0 0 0 0 0 0 0 0 0 0 0 0 0 0 0 0 0 0
0 0 0 0 0 0 0 0 0 0 0 0 0 0 0 0 0 0 0 0 0 0 0 0 0 0 0 0 0 0 0 0 0 0 0 0 0 0 0 0 0 0 0
0 0 0 0 0 0 0 0 0 0 0 0 0 0 0 0 0 0 0 0 0 0 0 0 0 0 0 0 0 0 0 0 0 0 0 0 0 0 0 0 0 0 0
0 0 0 0 0 0 0 0 0 0 0 0 0 0 0 0 0 0 0 0 0 0 0 0 0 0 0 0 0 0 0 0 0 0 0 0 0 0 0 0 0 0 0
0 0 0 0 0 0 0 0 0 0 0 0 0 0 0 0 0 0 0 0 0 0 0 0 0 0 0 0 0 0 0 0 0 0 0 0 0 0 0 0 0 0 0
0 0 0 0 0 0 0 0 0 0 0 0 0 0 0 0 0 0 0 0 0 0 0 0 0 0 0 0 0 0 0 0 0 0 0 0 0 0 0 0 0 0 0
0 0 0 0 0 0 0 0 0 0 0 0 0 0 0 0 0 0 0 0 0 0 0 0 0 0 0 0 0 0 0 0 0 0 0 0 0 0 0 0 0 0 0
0 0 0 0 0 0 0 0 0 0 0 0 0 0 0 0 0 0 0 0 0 0 0 0 0 0 0 0 0 0 0 0 0 0 0 0 0 0 0 0 0 0 0
0 0 0 0 0 0 0 0 0 0 0 0 0 0 0 0 0 0 0 0 0 0 0 0 0 0 0 0 0 0 0 0 0 0 0 0 0 0 0 0 0 0 0
0 0 0 0 0 0 0 0 0 0 0 0 0 0 0 0 0 0 0 0 0 0 0 0 0 0 0 0 0 0 0 0 0 0 0 0 0 0 0 0 0 0 0
0 0 0 0 0 0 0 0 0 0 0 0 0 0 0 0 0 0 0 0 0 0 0 0 0 0 0 0 0 0 0 0 0 0 0 0 0 0 0 0 0 0 0
0 0 0 0 0 0 0 0 0 0 0 0 0 0 0 0 0 0 0 0 0 0 0 0 0 0 0 0 0 0 0 0 0 0 0 0 0 0 0 0 0 0 0
0 0 0 0 0 0 0 0 0 0 0 0 0 0 0 0 0 0 0 0 0 0 0 0 0 0 0 0 0 0 0 0 0 0 0 0 0 0 0 0 0 0 0
0 0 0 0 0 0 0 0 0 0 0 0 0 0 0 0 0 0 0 0 0 0 0 0 0 0 0 0 0 0 0 0 0 0 0 0 0 0 0 0 0 0 0
0 0 0 0 0 0 0 0 0 0 0 0 0 0 0 0 0 0 0 0 0 0 0 0 0 0 0 0 0 0 0 0 0 0 0 0 0 0 0 0 0 0 0
Wind_Speed
3 2 3 3 3 2 2 2 2 1 1 1 1 1 0 1 1 1 1 1 0 0 1 0 1 1 1 2 2 1 1 1 0 0 1 2 2 2 2 2 2 2 3
2 2 2 2 3 2 2 2 2 1 1 1 1 1 1 1 1 1 1 1 1 1 0 1 1 1 1 1 2 1 1 1 1 1 1 2 3 2 2 2 2 2 2
6 4 3 3 3 3 3 2 2 1 1 1 1 1 1 1 1 1 1 2 1 1 1 1 1 1 1 2 2 2 2 2 2 1 2 2 3 2 2 1 2 2 2
5 5 4 4 4 4 3 3 2 2 1 1 2 2 1 1 2 1 1 2 2 2 1 1 1 1 1 2 2 2 2 2 2 2 1 2 2 2 2 2 1 1 2
4 5 5 5 4 4 3 3 2 2 2 2 2 2 1 1 1 1 1 2 2 2 2 1 1 2 2 2 2 2 2 3 3 2 1 1 1 1 2 2 2 2 2
3 3 3 3 2 2 2 2 2 2 2 2 2 3 3 2 2 2 2 2 2 2 2 2 2 2 2 2 2 2 3 3 3 3 2 2 2 2 2 3 2 2 2
2 2 2 3 3 3 3 3 3 3 3 3 3 3 4 4 4 3 3 3 2 2 3 2 2 2 2 3 2 2 3 3 4 4 3 3 3 2 2 2 2 2 2
1 2 3 3 3 4 4 4 4 4 4 4 4 3 4 3 3 4 4 4 3 4 3 3 3 3 3 3 2 2 3 2 3 4 3 3 3 3 3 3 2 2 2
1 2 2 3 4 5 5 6 5 5 5 5 4 4 4 4 4 4 4 4 4 3 4 3 3 3 3 3 3 2 3 3 3 3 4 3 3 2 3 2 3 4 4
1 2 2 3 4 4 4 4 5 6 5 5 5 4 5 5 5 4 5 4 4 4 3 4 4 3 3 3 3 3 3 3 3 2 3 3 2 2 2 3 3 3 4
3 3 3 3 3 3 3 3 4 5 5 5 5 5 5 5 4 4 5 5 4 4 4 4 4 4 4 4 3 4 3 3 3 3 4 4 3 3 3 2 3 3 3
2 3 3 2 2 3 3 3 4 5 5 5 5 5 5 5 5 5 5 5 5 4 5 5 5 5 5 4 4 5 4 4 5 4 4 4 3 3 3 3 3 3 3
2 2 2 2 3 3 4 4 4 5 5 4 5 5 5 5 6 6 5 5 5 5 4 5 5 6 5 5 5 5 5 5 5 5 5 4 4 4 3 3 3 2 2
2 2 3 3 4 4 4 4 5 5 5 4 5 6 6 6 6 6 6 5 5 5 5 5 6 5 5 5 5 5 5 5 5 5 5 4 4 5 4 4 3 3 2
3 3 3 4 4 4 4 4 5 5 4 4 5 7 6 6 5 6 6 5 5 6 5 5 6 5 5 5 5 5 5 5 5 4 4 4 5 6 5 4 4 4 3
4 4 4 4 4 5 5 5 5 5 4 4 6 6 5 5 5 6 6 5 5 5 5 5 6 5 5 8 10 7 5 5 5 5 4 4 5 6 7 7 6 6 5
4 4 5 5 5 5 5 5 6 5 4 5 6 5 5 5 6 5 5 6 6 5 5 6 6 6 7 10 11 10 6 5 5 5 4 4 4 5 3 4 5 4 5
4 5 5 5 5 5 5 5 5 4 5 5 6 5 5 5 5 5 5 6 5 5 5 6 6 6 8 11 12 11 6 5 5 5 5 5 4 4 4 3 2 2 2
5 5 5 5 5 6 6 5 5 4 4 5 6 5 5 5 5 5 6 5 5 5 6 5 6 7 8 11 12 10 4 4 5 5 5 5 5 8 8 5 4 3 2
5 5 5 5 5 6 5 4 5 5 5 6 6 5 5 5 6 6 6 5 5 6 5 6 6 7 7 10 11 10 4 5 4 4 4 8 8 9 9 6 5 5 4
6 6 5 5 6 6 5 5 6 6 7 6 5 5 5 5 6 5 5 5 5 5 5 6 6 6 8 10 11 11 5 5 5 4 4 4 8 9 9 7 5 6 4
7 6 5 6 6 6 5 6 7 8 6 5 5 5 5 5 4 4 5 4 4 5 5 5 5 5 6 8 9 12 10 8 6 5 4 4 8 8 8 6 6 7 4
7 6 6 7 7 6 5 7 8 6 5 5 6 5 5 5 4 5 5 4 4 4 5 5 5 5 4 5 11 11 11 11 6 4 7 7 8 7 5 6 7 5 3
6 6 6 6 7 6 6 7 7 6 5 6 6 5 5 5 5 4 4 5 5 5 5 5 5 4 4 4 4 4 5 8 6 4 6 7 7 5 5 5 4 3 3
6 6 6 7 8 8 7 7 6 5 6 6 6 5 5 5 5 5 5 6 7 7 7 6 5 5 6 7 9 6 5 5 5 4 3 3 3 3 3 3 3 3 2
6 6 7 8 8 8 8 7 6 5 6 6 6 5 5 5 5 5 5 8 9 11 12 12 9 7 9 9 10 11 11 10 10 6 4 5 5 5 5 5 4 3 3
Wind_Direction
219 181 158 141 123 111 111 115 110 93 97 88 92 87 318 317 328 310 314 310 296 218 164 193 215 196 212 223 225 224 233 244 182 95 312 306 280 241 219 204 189 192 192
199 186 167 158 161 168 164 159 152 154 135 151 158 174 186 240 268 303 315 309 311 290 194 197 231 221 212 227 227 215 224 239 178 154 148 302 314 291 238 206 196 198 187
194 194 190 194 187 192 194 185 179 168 168 151 115 100 63 16 0 319 307 313 309 290 259 226 229 235 216 216 221 211 211 228 237 199 168 183 234 286 303 249 207 196 199
193 195 196 203 206 208 198 191 182 179 186 154 134 142 164 218 249 259 280 304 296 288 279 262 249 240 232 231 232 217 216 214 227 245 228 215 194 198 274 302 285 233 216
194 200 206 210 211 202 191 197 187 194 197 179 173 162 195 227 263 297 302 302 303 290 280 272 264 259 250 241 245 238 220 213 216 213 206 218 242 222 208 259 289 301 263
212 216 218 208 211 201 198 200 198 217 214 203 197 188 205 224 252 271 270 280 284 281 273 262 255 253 256 252 245 237 230 226 223 217 203 189 189 198 199 227 256 267 279
218 224 213 213 218 213 210 206 208 226 225 220 220 215 214 216 226 240 245 256 268 268 266 264 258 255 252 253 249 238 240 232 223 214 217 213 213 195 191 206 235 261 283
231 224 221 215 221 226 221 213 215 228 226 225 230 228 224 221 232 236 238 242 247 250 253 254 255 256 258 261 254 245 241 234 228 225 219 217 219 208 199 194 191 247 273
247 232 240 235 230 229 224 217 219 230 232 230 232 233 231 229 237 244 242 242 244 248 245 249 255 259 256 256 252 247 247 239 230 227 223 224 224 215 214 201 193 197 237
287 273 262 258 256 243 237 228 223 227 233 232 230 233 231 231 233 238 244 245 245 245 247 247 247 254 257 253 250 250 247 241 242 232 222 225 224 220 216 210 210 208 215
254 264 269 269 267 264 252 242 241 241 243 238 235 236 239 236 234 237 241 241 242 240 242 243 242 246 250 248 248 250 247 245 247 241 231 231 218 218 220 216 214 215 210
252 267 279 292 292 276 264 256 252 247 245 241 237 237 238 237 239 243 243 239 242 242 242 243 241 241 241 236 234 240 239 237 240 240 237 238 224 220 219 214 217 218 211
282 298 307 302 294 283 275 266 259 254 254 246 240 241 240 238 241 244 243 239 238 243 243 239 239 240 238 235 231 230 233 233 234 232 230 232 220 225 222 217 219 221 224
278 291 295 287 284 281 275 271 267 261 259 250 243 243 242 239 241 242 241 238 235 237 243 243 239 238 237 234 230 228 230 233 233 231 229 226 220 223 218 216 214 208 211
291 288 285 284 286 288 283 274 271 269 259 252 249 248 248 245 242 242 241 239 236 237 238 243 240 236 233 232 226 224 227 229 234 235 229 227 225 223 216 209 203 198 205
282 285 289 290 287 284 281 280 277 273 261 253 253 255 253 250 247 245 242 239 238 237 236 239 236 233 234 237 234 227 225 227 229 235 235 234 230 232 233 227 214 200 198
283 287 289 282 279 278 276 273 269 272 264 257 260 258 251 250 249 246 242 240 240 240 241 243 235 236 239 240 240 234 223 223 227 226 225 235 232 225 219 227 228 225 224
282 284 287 287 284 280 281 277 276 275 265 261 260 257 251 252 251 244 243 243 239 239 242 244 236 236 242 241 242 237 228 226 228 223 218 220 225 217 202 194 197 214 228
266 266 265 270 281 286 284 285 285 281 274 268 265 262 253 252 251 248 247 243 239 242 240 241 237 237 246 241 238 229 216 225 228 224 218 215 220 221 210 194 195 208 229
269 271 274 278 283 282 283 284 283 283 276 269 266 262 256 251 251 249 246 243 238 242 243 245 238 235 242 242 235 223 211 217 224 223 223 225 224 219 212 197 190 205 213
276 277 280 280 276 279 281 277 277 272 270 270 266 261 256 252 251 249 246 245 244 245 244 246 243 237 238 242 235 223 208 210 215 218 220 222 220 220 218 209 201 207 198
278 277 277 277 276 275 270 271 271 270 273 273 269 266 262 257 253 245 251 246 240 244 247 248 251 242 238 235 230 225 221 210 209 216 212 211 214 216 216 214 207 204 199
272 271 269 277 278 272 259 265 272 276 277 275 270 268 267 260 248 241 246 247 236 237 244 240 246 250 236 233 230 226 223 218 214 213 209 205 212 213 212 210 203 198 188
268 270 272 275 279 277 268 262 270 273 270 271 272 268 264 265 257 245 238 237 236 236 238 237 241 246 240 228 220 216 217 217 215 205 203 205 210 203 194 195 200 198 191
266 264 264 269 274 278 276 272 269 266 265 266 268 265 259 257 257 250 239 235 235 230 230 233 230 229 239 232 218 209 209 201 196 174 169 179 182 190 191 189 192 191 188
269 268 267 267 271 273 274 272 266 258 259 267 266 261 258 256 253 256 265 247 243 249 242 237 232 234 235 235 227 221 217 211 197 183 188 197 200 204 202 200 198 197 197